This is the latest recevied weather packets stored in our database for station/object F5LKO-13. If no packets are shown the sender has not sent any weather packets the latest 10 day(s).
| Time | Temp. | Humidity | Pressure | Rain* | Wind** | Luminosity | Snow |
|---|---|---|---|---|---|---|---|
| 1777536917 | 22.78° C | 99% | 1016.9 hPa | 0 mm | - | 34 W/m² | - |
| 1777536611 | 22.78° C | 99% | 1016.8 hPa | 0 mm | - | 33 W/m² | - |
| 1777536304 | 22.78° C | 99% | 1016.7 hPa | 0 mm | - | 30 W/m² | - |
| 1777535999 | 21.11° C | 99% | 1016.6 hPa | 0 mm | - | 10 W/m² | - |
| 1777535700 | 20° C | 99% | 1016.5 hPa | 0.51 mm | - | 15 W/m² | - |
| 1777535385 | 17.78° C | 99% | 1016.5 hPa | 0.51 mm | - | 17 W/m² | - |
| 1777535079 | 18.33° C | 99% | 1016.5 hPa | 0.51 mm | - | 9 W/m² | - |
| 1777534774 | 18.33° C | 99% | 1016.5 hPa | 0.51 mm | - | 0 W/m² | - |
| 1777534467 | 19.44° C | 99% | 1016.5 hPa | 0.51 mm | - | 0 W/m² | - |
| 1777534161 | 18.33° C | 99% | 1016.4 hPa | 0.51 mm | - | 3 W/m² | - |
| 1777533864 | 18.89° C | 99% | 1016.4 hPa | 0 mm | - | 11 W/m² | - |
| 1777533549 | 17.78° C | 99% | 1016.3 hPa | 0 mm | - | 2 W/m² | - |
| 1777533243 | 16.11° C | 99% | 1016.1 hPa | 0 mm | - | 4 W/m² | - |
| 1777532937 | 15.56° C | 99% | 1016 hPa | 0 mm | - | 2 W/m² | - |
| 1777532631 | 15° C | 99% | 1016 hPa | 0 mm | - | 1 W/m² | - |
| 1777532325 | 15° C | 99% | 1015.9 hPa | 0 mm | - | 0 W/m² | - |
| 1777532027 | 15° C | 99% | 1016 hPa | 0.51 mm | - | 0 W/m² | - |
| 1777531712 | 15° C | 99% | 1016 hPa | 0.51 mm | - | 0 W/m² | - |
| 1777531406 | 15° C | 99% | 1016 hPa | 0.51 mm | - | 0 W/m² | - |
| 1777531100 | 14.44° C | 99% | 1015.9 hPa | 0.51 mm | - | 0 W/m² | - |
| 1777530794 | 15° C | 99% | 1016 hPa | 0.51 mm | - | 0 W/m² | - |
| 1777530489 | 15° C | 99% | 1016.2 hPa | 0.51 mm | - | 0 W/m² | - |
| 1777530191 | 15° C | 99% | 1016.5 hPa | 0.51 mm | - | 0 W/m² | - |
| 1777529876 | 15° C | 99% | 1016.6 hPa | 0 mm | - | 0 W/m² | - |
| 1777529572 | 15° C | 99% | 1016.6 hPa | 0 mm | - | 0 W/m² | - |
* Rain latest hour (hover to see other rain measurements)
** Current wind speed in m/s (hover to see current wind gust speed)